Regional Weather Roundup
Issued by NWS Huntsville, AL

Current Version | Previous Version | Text Only | Print | Product List | Glossary On
Versions: 1 2 3 4 5 6 7 8 9 10 11 12 13 14 15 16 17 18 19 20 21 22 23 24 25 26 27 28
000
ASUS44 KHUN 241210
RWRHUN

WEATHER ROUNDUP FOR THE TENNESSEE VALLEY
NATIONAL WEATHER SERVICE HUNTSVILLE AL
600 AM CST WED JAN 24 2018

ALZ001>004-241300-
NORTHWEST ALABAMA

CITY           SKY/WX    TMP DP  RH WIND       PRES   REMARKS
COURTLAND HCN    N/A     27 N/A N/A CALM        N/A
RUSSELLVILLE     N/A     21 N/A N/A MISG        N/A
SHOALS AIRPORT FAIR      28  24  85 NW5       30.32R WCI  23
6HR MIN TEMP:  27; 6HR MAX TEMP:  38;

SHOALS TVA RES   N/A     25 N/A N/A MISG        N/A
$$

ALZ005>007-016-241300-
NORTH CENTRAL ALABAMA

CITY           SKY/WX    TMP DP  RH WIND       PRES   REMARKS
CULLMAN AG STN   N/A     30 N/A N/A NW3         N/A
DECATUR AP     FAIR      26  24  92 CALM      30.30R
6HR MIN TEMP:  26; 6HR MAX TEMP:  35;

HUNTSVILLE AP  FAIR      29  27  92 W3        30.28R
6HR MIN TEMP:  27; 6HR MAX TEMP:  37;

MERIDIANVILLE  FAIR      30  27  86 CALM      30.28R
REDSTONE ARSN  FAIR      28  27  94 CALM      30.27R
VINEMONT AP    FAIR      26  24  94 CALM      30.29R
$$

ALZ008>010-241300-
NORTHEAST ALABAMA

CITY           SKY/WX    TMP DP  RH WIND       PRES   REMARKS
ALBERTVILLE    FAIR      30  30 100 CALM      30.25R
FORT PAYNE     FAIR      28  25  86 MISG      30.25R
SCOTTSBORO AP  FAIR      30  28  93 CALM      30.28R
SCOTTSBORO HCN   N/A     27 N/A N/A MISG        N/A
VALLEY HEAD      N/A     25 N/A N/A MISG        N/A
$$

TNZ076-096-097-241300-
SOUTHEASTERN MIDDLE TENNESSEE

CITY           SKY/WX    TMP DP  RH WIND       PRES   REMARKS
TULLAHOMA      CLOUDY    32  25  74 N6        30.25S WCI  26
WINCHESTER     PTCLDY    30  25  80 N3        30.26F
$$

...SURROUNDING SITES...

CITY           SKY/WX    TMP DP  RH WIND       PRES   REMARKS
ATLANTA        FAIR      36  28  73 NW13      30.18S WCI  27
ANNISTON       FAIR      35  28  75 N8        30.27R WCI  29
BIRMINGHAM     FAIR      28  25  88 CALM      30.31R
CHATTANOOGA    FAIR      36  26  67 NW10      30.26R WCI  28
CORINTH        FAIR      25  25 100 CALM      30.33R
DALTON         FAIR      36  28  75 NW8G17    30.25R WCI  29
GADSDEN        FAIR      25  25 100 CALM      30.29R
GOLDEN TRNGL   FAIR      26  24  92 W3        30.35R
HALEYVILLE     FAIR      24  24 100 CALM      30.31R
JACKSON TN     FAIR      25  23  92 SW5       30.32S WCI  19
MEMPHIS        FAIR      29  27  92 CALM      30.34R
NASHVILLE      CLOUDY    36  27  69 E3        30.29R
ROME           FAIR      30  27  88 CALM      30.25R
SAVANNAH       CLEAR     25  23  93 CALM      30.32R
SELMER         CLEAR     27  25  93 W3        30.31R
TUPELO         FAIR      27  23  85 CALM      30.34R
TUSCALOOSA     FAIR      29  27  92 CALM      30.33S
$$

...GULF COAST WEATHER...

CITY           SKY/WX    TMP DP  RH WIND       PRES   REMARKS
GULFPORT       FAIR      41  33  73 N3        30.34R
PASCAGOULA     FAIR      41  32  70 N6        30.34R
MOBILE         MOCLDY    40  32  73 N7        30.33R
GULF SHORES    FAIR      41  33  73 N6        30.32R
PENSACOLA      MOCLDY    41  32  70 N3        30.31R
DESTIN         FAIR      45  34  65 N7        30.29R
PANAMA CITY    MOCLDY    44  35  73 N7        30.26R
APPALACHICOLA  FAIR      40  35  83 CALM      30.24R
$$





USA.gov is the U.S. government's official web portal to all federal, state and local government web resources and services.